Regional Weather Roundup
Issued by NWS Upton, NY

Home | Current Version | Previous Version | Text Only | Print | Product List | Glossary On
Versions: 1 2 3 4 5 6 7 8 9 10 11 12 13 14 15 16 17 18 19 20 21 22 23 24 25 26 27
000
ASUS41 KOKX 102308
RWROKX

REGIONAL WEATHER ROUNDUP
NATIONAL WEATHER SERVICE NEW YORK NY
600 PM EST SAT DEC 10 2016

NOTE: "FAIR" INDICATES FEW OR NO CLOUDS BELOW 12,000 FEET WITH NO
SIGNIFICANT WEATHER AND/OR OBSTRUCTIONS TO VISIBILITY.

NYZ071-072-176-178-NJZ106-104-110000-
NEW YORK CITY METRO AREA

CITY           SKY/WX    TMP DP  RH WIND       PRES   REMARKS
Central Park   CLOUDY    33  18  53 NW6       30.42R WCI  28
Wall St Helipt MOCLDY    35  21  56 VRB7      30.42R WCI  29
Bronx Bot Gard NOT AVBL
LaGuardia APRT MOCLDY    35  21  56 NW9       30.40R WCI  28
Kennedy INTL   PTCLDY    34  15  46 W14       30.42R WCI  25
Breezy Point     N/A     32 N/A N/A W9G16       N/A  WCI  24
Newark/Liberty MOCLDY    32  17  54 W8        30.41R WCI  25
Teterboro      MOCLDY    32  19  58 W6        30.40R WCI  26
$$

NYZ177-179-078>081-110000-
LONG ISLAND NEW YORK

CITY           SKY/WX    TMP DP  RH WIND       PRES   REMARKS
Jones Beach      N/A     34 N/A N/A W15G21      N/A  WCI  24
Matinecock PT    N/A     36 N/A N/A W16         N/A  WCI  26
Farmingdale    CLEAR     32  17  54 NW5       30.40R WCI  27
MacArthur/ISP  PTCLDY    31  17  56 CALM      30.39R
Shirley        CLEAR     27  18  69 CALM      30.40R
Westhampton    NOT AVBL
Southampton    NOT AVBL
Bridgehampton  NOT AVBL
East Hampton     N/A     30  13  48 NW3       30.38R
Montauk          N/A     33  13  43 NW14G24   30.39R WCI  23
$$

NYZ052-065-067-110000-
HUDSON VALLEY

CITY           SKY/WX    TMP DP  RH WIND       PRES   REMARKS
White Plains   PTCLDY    30  19  63 W6        30.37R WCI  24
Newburgh       PTCLDY    25  19  80 W8        30.37R WCI  16
Montgomery     PTCLDY    25  17  72 SW5       30.36R WCI  19
Poughkeepsie   CLEAR     24  14  65 CALM      30.38R
Albany         PTCLDY    23  12  62 W5        30.38R WCI  17
$$

NJZ001-105-106-008-010-013-015-019>022-104-110000-
NEW JERSEY

CITY           SKY/WX    TMP DP  RH WIND       PRES   REMARKS
Newark/Liberty MOCLDY    32  17  54 W8        30.41R WCI  25
Teterboro      MOCLDY    32  19  58 W6        30.40R WCI  26
Caldwell       MOCLDY    32  19  58 NW3       30.41R
Somerville     CLEAR     31  13  47 VRB6      30.40R WCI  25
Linden           N/A     31  18  57 NW6       30.42R WCI  26
Sussex         CLOUDY    28  21  75 SW5       30.38R WCI  23
Andover          N/A     29  18  63 N3        30.38R
Trenton        CLEAR     32  13  45 W3        30.42R
Millville      MOCLDY    31  17  56 W7        30.46R WCI  24
Atlantic City  MOCLDY    33  13  43 W6        30.44R WCI  28
Wrightstown    CLEAR     31  14  49 NW7       30.40R WCI  24
Toms River     PTCLDY    31  17  56 W5        30.44R WCI  26
Belmar         MOCLDY    30  17  58 W5        30.43R WCI  25
$$

PAZ047>061-062-071-110000-
EASTERN PENNSYLVANIA

CITY           SKY/WX    TMP DP  RH WIND       PRES   REMARKS
Philadelphia   PTCLDY    35  12  38 NW10      30.46R WCI  27
Allentown      CLEAR     29  15  56 W9        30.41R WCI  20
Scranton       CLOUDY    27  18  69 SW7       30.36R WCI  19
$$

CTZ002-004>006-009-010-012-RIZ004-006-007-MAZ004-011-015-110000-
SOUTHERN NEW ENGLAND
 IN CT

CITY           SKY/WX    TMP DP  RH WIND       PRES   REMARKS
Bradley INTL   PTCLDY    25   9  50 NW3       30.37R
Hartford       CLEAR     28  12  51 NW5       30.38R WCI  23
Danbury        CLEAR     24  15  68 W3        30.37R
Wtrbury/Oxford PTCLDY    27  10  50 CALM      30.36R
Bridgeport     CLEAR     32  15  49 CALM      30.39R
Meriden        CLEAR     24  15  68 CALM      30.38R
New Haven      PTCLDY    31  14  49 NW5       30.39R WCI  26
Chester          N/A     27  10  50 CALM      30.36R
Groton         CLEAR     32  11  41 W7        30.38R WCI  26
Wilimantic     CLEAR     28  10  46 NW3       30.37R

 IN RI

CITY           SKY/WX    TMP DP  RH WIND       PRES   REMARKS
Providence     PTCLDY    28   7  41 W8        30.36R WCI  20
Block Island   PTCLDY    30  14  51 NW13G20   30.38R WCI  20
Westerly       CLEAR     29   8  41 W3        30.38R
 IN MA

CITY           SKY/WX    TMP DP  RH WIND       PRES   REMARKS
Boston         PTCLDY    26   4  38 NW14      30.37R WCI  14
Worcester      CLEAR     20   4  50 NW6       30.29R WCI  12
Westfield      CLEAR     21   8  57 CALM      30.36R
Provincetown   MOCLDY    29  11  47 NW20      30.33R WCI  16
Nantucket      CLEAR     29   8  41 NW14      30.33R WCI  18
$$

ANZ330-335-338-340-345-350-353-355-110000-
COASTAL MARINE OBSERVATIONS


STATION/POSITION TIME  SKY/WX   TEMP    WIND        PRES    VSBY  WAVE
                                AIR SEA DIR/SP/G                  HT/PER
                 (UTC)          (F)     (DEG/KT/KT) (MB)    (MI)  (FT/S)
NY HARB ENTRANCE 2150            36 51  280/ 17/ 23 1028.6          2/ 4
20 S FIRE ISLAND 2150            36 52  330/ 14/ 19 1028.1          4/ 5
GREAT SOUTH BAY  2215            34 40                N/A
23 SSW MONTAUK P 2150            36 54  280/ 21/ 25 1027.9          4/ 5
15 E BARNEGAT LI 2230               51                N/A           3/ 3
HUDSON CANYON    2150            40 55              1027.9          4/ 5
KINGS POINT      2248            34 45              1029.2
EXECUTION ROCKS  2245            35     280/ 10/ 14   N/A
CENTRAL LI SOUND 2230            34 49  310/ 14/ 17   N/A           2/ 4
EASTERN LI SOUND NOT AVBL
ROBBINS REEF     2248            34     280/ 12/ 14 1029.7
$$


>>>>>>>>>>>>>>>>>>>>>>>>>>>> KEY <<<<<<<<<<<<<<<<<<<<<<<<<<<
>                                                          <
>     SKY/WX - Sky Condition/Present Weather               <
>     TMP    - Temperature in Fahrenheit                   <
>     DP     - Dew Point in Fahrenheit                     <
>     RH     - Relative Humidity in Percent                <
>     WIND   - Direction (from) and Speed in MPH           <
>     PRES   - Mean Sea Level Pressure (inches of Hg)      <
>     WCI    - Wind Chill Index                            <
>     VSB    - VISIBILITY IN MILES                         <
>     HX     - HEAT INDEX                                  <
>     TC     - TEMPERATURE IN CELSIUS                      <
>     VRB    - VARIABLE WIND DIRECTION                     <
>                                                          <
>>>>>>>>>>>>>>>>>>>>>>>>>>>> KEY <<<<<<<<<<<<<<<<<<<<<<<<<<<




USA.gov is the U.S. government's official web portal to all federal, state and local government web resources and services.